HB9EKO-12 Weather Reports


time (UTC)temp
C
wind
direction
speed
KPH
gust
KPH
rain 1hr
cm
rain 24hr
cm
rain mn
cm
humidity
%
barometer
mb
20260506154046 11 0 4.8 0.0 0.00 0.00 0.00 94 1010.0
20260506152541 11 0 1.6 0.0 0.00 0.00 0.00 92 1011.0
20260506151035 11 0 8.0 0.0 0.00 0.00 0.00 91 1011.0
20260506145530 11 0 8.0 0.0 0.00 0.00 0.00 95 1011.0
20260506144025 11 0 9.7 0.0 0.00 0.00 0.00 99 1010.0
20260506142520 11 0 6.4 0.0 0.00 0.00 0.00 99 1010.0
20260506141015 11 0 9.7 0.0 0.00 0.00 0.00 10 1010.0
20260506135509 10 0 11.3 0.0 0.00 0.00 0.00 98 1011.0
20260506134004 10 0 8.0 0.0 0.00 0.00 0.00 10 1011.0
20260506132459 10 0 8.0 0.0 0.00 0.00 0.00 98 1010.0
20260506130954 10 0 16.1 0.0 0.00 0.00 0.00 97 1010.0
20260506125448 11 0 14.5 0.0 0.00 0.00 0.00 95 1010.0
20260506123943 11 0 17.7 0.0 0.00 0.00 0.00 95 1009.0
20260506122438 12 0 14.5 0.0 0.00 0.00 0.00 91 1009.0
20260506120933 13 0 4.8 0.0 0.00 0.00 0.00 84 1009.0
20260506115427 14 0 16.1 0.0 0.00 0.00 0.00 74 1008.0
20260506113922 15 0 6.4 0.0 0.00 0.00 0.00 73 1008.0
20260506112417 15 0 4.8 0.0 0.00 0.00 0.00 71 1008.0
20260506110912 15 0 0.0 0.0 0.00 0.00 0.00 71 1008.0
20260506105406 15 0 3.2 0.0 0.00 0.00 0.00 74 1008.0
20260506103901 15 0 0.0 0.0 0.00 0.00 0.00 72 1008.0
20260506102356 15 0 3.2 0.0 0.00 0.00 0.00 70 1008.0
20260506100851 15 0 4.8 0.0 0.00 0.00 0.00 69 1008.0
20260506095346 15 0 0.0 0.0 0.00 0.00 0.00 79 1008.0
20260506093840 15 0 0.0 0.0 0.00 0.00 0.00 79 1008.0
20260506092335 14 0 0.0 0.0 0.00 0.00 0.00 82 1008.0
20260506090830 14 0 0.0 0.0 0.00 0.00 0.00 78 1008.0
20260506085325 14 0 0.0 0.0 0.00 0.00 0.00 79 1008.0
20260506083819 14 0 0.0 0.0 0.00 0.00 0.00 79 1008.0
20260506082314 14 0 0.0 0.0 0.00 0.00 0.00 84 1008.0
20260506080809 13 0 0.0 0.0 0.00 0.00 0.00 86 1008.0
20260506072253 12 0 0.0 0.0 0.00 0.00 0.00 10 1008.0
20260506070748 12 0 0.0 0.0 0.00 0.00 0.00 10 1008.0
20260506062232 11 0 0.0 0.0 0.00 0.00 0.00 10 1008.0
20260506060727 11 0 0.0 0.0 0.00 0.00 0.00 10 1008.0
20260506050706 10 0 0.0 0.0 0.00 0.00 0.00 10 1009.0
20260506043656 9 0 0.0 0.0 0.00 0.00 0.00 10 1009.0
20260506040645 10 0 0.0 0.0 0.00 0.00 0.00 10 1009.0
20260506035140 10 0 0.0 0.0 0.00 0.00 0.00 10 1009.0
20260506033635 10 0 0.0 0.0 0.00 0.00 0.00 10 1009.0
20260506032129 10 0 0.0 0.0 0.00 0.00 0.00 10 1009.0
20260506030624 10 0 0.0 0.0 0.00 0.00 0.00 10 1009.0
20260506025119 11 0 0.0 0.0 0.00 0.00 0.00 10 1009.0
20260506023614 11 0 0.0 0.0 0.00 0.00 0.00 10 1009.0
20260506022108 11 0 0.0 0.0 0.00 0.00 0.00 10 1009.0
20260506020603 11 0 0.0 0.0 0.00 0.00 0.00 10 1010.0
20260506015058 11 0 0.0 0.0 0.00 0.00 0.00 99 1010.0
20260506013553 11 0 0.0 0.0 0.00 0.00 0.00 99 1010.0
20260506012047 11 0 0.0 0.0 0.00 0.00 0.00 10 1010.0
20260506010542 11 0 0.0 0.0 0.00 0.00 0.00 10 1010.0
20260506005037 11 0 0.0 0.0 0.00 0.00 0.00 10 1010.0
20260506003532 11 0 0.0 0.0 0.00 0.00 0.00 99 1010.0
20260506002026 11 0 0.0 0.0 0.00 0.00 0.00 99 1011.0
20260506000521 11 0 0.0 0.0 0.00 0.00 0.00 97 1011.0
20260505235016 11 0 0.0 0.0 0.00 0.00 0.00 97 1010.0
20260505233511 11 0 0.0 0.0 0.00 0.00 0.00 96 1011.0
20260505232005 12 0 0.0 0.0 0.00 0.00 0.00 94 1011.0
20260505230500 12 0 0.0 0.0 0.00 0.00 0.00 96 1011.0
20260505224955 12 0 0.0 0.0 0.00 0.00 0.00 96 1011.0
20260505223450 12 0 0.0 0.0 0.00 0.00 0.00 95 1011.0
20260505221945 12 0 0.0 0.0 0.00 0.00 0.00 96 1011.0
20260505220439 12 0 4.8 0.0 0.00 0.00 0.00 96 1011.0
20260505214934 12 0 0.0 0.0 0.00 0.00 0.00 97 1011.0
20260505213429 12 0 0.0 0.0 0.00 0.00 0.00 98 1011.0
20260505211924 12 0 0.0 0.0 0.00 0.00 0.00 10 1011.0
20260505210418 12 0 0.0 0.0 0.00 0.00 0.00 10 1011.0
20260505204913 12 0 0.0 0.0 0.00 0.00 0.00 10 1011.0
20260505203408 12 0 0.0 0.0 0.00 0.00 0.00 10 1011.0
20260505201903 12 0 0.0 0.0 0.00 0.00 0.00 10 1011.0
20260505194852 12 0 0.0 0.0 0.00 0.00 0.00 10 1011.0
20260505193347 12 0 0.0 0.0 0.00 0.00 0.00 10 1011.0
20260505191842 12 0 0.0 0.0 0.00 0.00 0.00 10 1011.0
20260505190336 12 0 11.3 0.0 0.00 0.00 0.00 10 1010.0
20260505184831 12 0 6.4 0.0 0.00 0.00 0.00 10 1010.0
20260505183326 12 0 12.9 0.0 0.00 0.00 0.00 10 1010.0
20260505181821 13 0 1.6 0.0 0.00 0.00 0.00 98 1010.0
20260505180315 13 0 8.0 0.0 0.00 0.00 0.00 98 1010.0
20260505174810 13 0 3.2 0.0 0.00 0.00 0.00 96 1010.0
20260505173305 13 0 12.9 0.0 0.00 0.00 0.00 94 1010.0
20260505171800 12 0 3.2 0.0 0.00 0.00 0.00 93 1010.0
20260505170255 13 0 4.8 0.0 0.00 0.00 0.00 85 1010.0
20260505164750 13 0 0.0 0.0 0.00 0.00 0.00 85 1010.0
20260505163244 13 0 0.0 0.0 0.00 0.00 0.00 81 1011.0
20260505161739 14 0 4.8 0.0 0.00 0.00 0.00 73 1010.0
20260505160234 15 0 3.2 0.0 0.00 0.00 0.00 65 1010.0